Regional Weather Roundup
Issued by NWS

Home | Current Version | Previous Version | Text Only | Print | Product List | Glossary Off
Versions: 1 2 3 4 5 6 7 8 9 10 11 12 13 14 15 16 17 18 19 20 21 22 23 24 25 26 27 28 29 30 31 32 33 34 35 36 37 38 39 40 41 42 43 44 45 46 47 48 49 50

000
ASUS43 KLSX 170410
RWRMO

WEATHER SUMMARY FOR MISSOURI
NATIONAL WEATHER SERVICE SPRINGFIELD MO
1000 PM CST MON JAN 16 2017

NOTE: "FAIR" INDICATES FEW OR NO CLOUDS BELOW 12,000 FEET WITH NO
       SIGNIFICANT WEATHER AND/OR OBSTRUCTIONS TO VISIBILITY.
       CURRENT SKY AND/OR WEATHER CONDITIONS ARE NOT AVAILABLE FOR
       CHILLICOTHE AND FARMINGTON.

MOZ001>031-035>038-043-044-053-054-170500-
...NORTHERN AND WESTERN MISSOURI...

CITY           SKY/WX    TMP DP  RH WIND       PRES   REMARKS
KANSAS CTY INT CLOUDY    39  38  96 W12       29.92R
KANSAS C DTWN  CLOUDY    41  38  89 W12       29.93R
LEE`S SUMMIT   CLOUDY    40  32  73 W13G23    29.92S
ST JOSEPH      CLOUDY    35  35 100 NW12      29.94R WCI  27
CHILLICOTHE      N/A     43  41  93 VRB5      29.89S
KIRKSVILLE     CLOUDY    44  44 100 W6        29.85S

$$
MOZ066>068-077>081-088>096-101>105-170500-
...SOUTHWEST MISSOURI...

CITY           SKY/WX    TMP DP  RH WIND       PRES   REMARKS
SPRINGFIELD    CLOUDY    43  35  73 W14       29.97S
JOPLIN         CLOUDY    43  36  76 MISG      30.00R
BRANSON        CLEAR     45  37  76 W9G18     29.98S

$$
MOZ032>034-039>042-045>050-055>058-069>072-170500-
...CENTRAL MISSOURI...

CITY           SKY/WX    TMP DP  RH WIND       PRES   REMARKS
COLUMBIA       CLOUDY    48  44  86 W22G31    29.89S
JEFFERSON CITY CLOUDY    50  43  77 W18G29    29.91R
ROLLA          LGT RAIN  50  48  93 W14       29.89R
SEDALIA        CLOUDY    43  37  79 SW14G23   29.93R
WHITEMAN AFB   CLOUDY    41  41 100 W17       29.91S
WARRENSBURG    CLOUDY    41  36  81 SW8       29.93S
OSAGE BEACH    CLOUDY    47  41  80 W17G26    29.93S

$$
MOZ051-052-059>065-170500-
...EAST CENTRAL MISSOURI...

CITY           SKY/WX    TMP DP  RH WIND       PRES   REMARKS
ST LOUIS INTL  PTCLDY    58  55  90 S15G21    29.83F
SPIRIT OF STL  CLOUDY    56  56 100 SW5       29.83F
ST CHARLES     FOG       51  51 100 CALM      29.83F VSB 1/4

$$
MOZ072>076-082>087-097>100-106>115-170500-
...SOUTH CENTRAL AND SOUTHEAST MISSOURI...

CITY           SKY/WX    TMP DP  RH WIND       PRES   REMARKS
CAPE GIRARDEAU CLOUDY    61  56  83 S15       29.92S
FARMINGTON     CLEAR     59  58  96 S13       29.88S
POPLAR BLUFF   CLOUDY    61  60  97 S6        29.92S
WEST PLAINS    CLEAR     56  51  84 W12G21    29.93S

$$




USA.gov is the U.S. government's official web portal to all federal, state and local government web resources and services.